Weerstation Grootegast  Weerstation Grootegast


15 daagse weersverwachting Angers (FR)

  • Overzicht
  • Per uur
  • 15 dagen
  • Extra
  • Vergelijk
  • Kaarten
  • Dagkaart
  • Meer »
  • Info
  • Statistieken
  • Directe link
    Temp 6h Neerslag Wind  
 08:28     19:07    Daglengte: 10:39 Vandaag
14:00
15°
 
3
20:00
13°
 
1
 08:29     19:05    Daglengte: 10:36 Morgen
02:00
12°
15.0 mm
2
08:00
11°
18.9 mm
4
14:00
12°
30.9 mm
5
20:00
11°
34.3 mm
6
 08:31     19:03    Daglengte: 10:32 Maandag 21 Okt
02:00
11°
48.5 mm
5
08:00
10°
41.5 mm
3
14:00
14°
 
3
20:00
11°
66.3 mm
2
 08:32     19:02    Daglengte: 10:30 Dinsdag 22 Okt
02:00
32.6 mm
1
Locatie info
Region: Pays de la Loire
Latitude: 47.4707°N
Longitude: -0.5533°E
50 masl
Postcode: 49100
Temp/Neerslag /Baro Onweer/Dauwpunt
    Temp Baro 1h Neerslag Dauwpunt Wind UV Bewolking  
 08:28     19:07    Daglengte: 10:39 Vandaag
10:00
13°
1005.4 hPa
26%
11.4°
3
Windvlaag: 0.7 m/s
89%
11:00
13°
1005.3 hPa
14%
11.4°
3
Windvlaag: 1.9 m/s
82%
12:00
14°
1005.5 hPa
14%
11.0°
3
Windvlaag: 2 m/s
81%
13:00
15°
1005.4 hPa
14%
10.8°
3
Windvlaag: 2 m/s
74%
14:00
15°
1005.1 hPa
14%
10.6°
3
Windvlaag: 1.6 m/s
65%
15:00
15°
1004.7 hPa
16%
10.4°
2
Windvlaag: 1.5 m/s
78%
16:00
15°
1004.5 hPa
59%
10.4°
2
Windvlaag: 1.4 m/s
85%
17:00
15°
1004.4 hPa
61%
10.6°
2
Windvlaag: 1.1 m/s
87%
18:00
15°
1004.4 hPa
72%
11.0°
1
Windvlaag: 0.8 m/s
89%
19:00
14°
1004.5 hPa
27%
12.2°
1
Windvlaag: 0.6 m/s
91%
20:00
13°
1004.9 hPa
71%
12.2°
1
Windvlaag: 0.2 m/s
91%
21:00
13°
1004.9 hPa 1.9 mm
82%
12.3°
1
Windvlaag: 0.2 m/s
91%
22:00
13°
1005.0 hPa 1.5 mm
82%
12.0°
1
Windvlaag: 0.1 m/s
91%
23:00
12°
1004.9 hPa 2.4 mm
81%
11.8°
1
Windvlaag: -0.2 m/s
90%
 08:29     19:05    Daglengte: 10:36 Morgen
00:00
12°
1005.2 hPa 2.8 mm
82%
11.6°
1
Windvlaag: -0 m/s
90%
01:00
12°
1005.2 hPa 3.2 mm
82%
11.3°
1
Windvlaag: 0.2 m/s
91%
02:00
12°
1004.8 hPa 3.3 mm
82%
11.1°
2
Windvlaag: 0.2 m/s
91%
03:00
12°
1004.7 hPa 2.6 mm
82%
11.0°
2
Windvlaag: -0.9 m/s
91%
04:00
12°
1004.0 hPa 2.9 mm
82%
11.0°
2
Windvlaag: -0.8 m/s
91%
05:00
12°
1004.0 hPa 3.0 mm
82%
10.9°
3
Windvlaag: -0.6 m/s
91%
06:00
12°
1004.1 hPa 3.2 mm
82%
10.7°
3
Windvlaag: -0.3 m/s
91%
07:00
11°
1004.1 hPa 3.4 mm
82%
10.5°
4
Windvlaag: -0.9 m/s
91%
08:00
11°
1004.4 hPa 3.8 mm
82%
10.4°
4
Windvlaag: -1.5 m/s
88%
09:00
11°
1004.6 hPa 4.1 mm
82%
10.3°
4
Windvlaag: -1.6 m/s
79%
10:00
11°
1004.9 hPa 3.8 mm
82%
10.0°
5
Windvlaag: -1.8 m/s
88%
11:00
12°
1004.8 hPa 5.6 mm
82%
10.3°
5
Windvlaag: -2.6 m/s
78%
12:00
12°
1004.9 hPa 6.2 mm
82%
9.8°
5
Windvlaag: -2.6 m/s
82%
13:00
12°
1005.2 hPa 6.3 mm
82%
9.3°
5
Windvlaag: -2.6 m/s
90%
14:00
12°
1005.2 hPa 4.9 mm
82%
9.6°
5
Windvlaag: -2.5 m/s
89%
15:00
12°
1005.0 hPa 5.1 mm
82%
9.7°
5
Windvlaag: -2.4 m/s
91%
16:00
12°
1005.0 hPa 5.1 mm
81%
9.7°
5
Windvlaag: -2.3 m/s
90%
17:00
12°
1005.1 hPa 7.1 mm
82%
9.9°
5
Windvlaag: -2.6 m/s
90%
18:00
12°
1005.6 hPa 5.3 mm
82%
9.8°
6
Windvlaag: -2.4 m/s
85%
19:00
11°
1006.1 hPa 5.8 mm
82%
9.7°
6
Windvlaag: -1.8 m/s
91%
20:00
11°
1006.9 hPa 5.8 mm
82%
9.3°
6
Windvlaag: -1.9 m/s
91%
21:00
11°
1007.4 hPa 8.5 mm
82%
9.2°
6
Windvlaag: -1.5 m/s
91%
22:00
11°
1008.0 hPa 8.7 mm
82%
9.0°
6
Windvlaag: -1.8 m/s
91%
23:00
11°
1008.5 hPa 8.8 mm
82%
8.9°
6
Windvlaag: -2.4 m/s
91%
 08:31     19:03    Daglengte: 10:32 Maandag 21 Okt
00:00
11°
1009.2 hPa 6.7 mm
82%
8.9°
5
Windvlaag: -2.6 m/s
91%
01:00
11°
1009.6 hPa 7.6 mm
82%
9.1°
6
Windvlaag: -2.9 m/s
91%
02:00
11°
1010.0 hPa 8.2 mm
82%
9.1°
5
Windvlaag: -3.3 m/s
90%
03:00
10°
1010.5 hPa 7.2 mm
82%
9.0°
5
Windvlaag: -3.3 m/s
91%
04:00
10°
1010.9 hPa 6.8 mm
82%
8.9°
5
Windvlaag: -2.3 m/s
89%
05:00
11°
1010.2 hPa 9.3 mm
100%
9.1°
4
Windvlaag: -1.5 m/s
98%
06:00
10°
1011.0 hPa 9.2 mm
100%
9.2°
4
Windvlaag: -0.8 m/s
65%
07:00
10°
1012.1 hPa 9.2 mm
99%
9.1°
3
Windvlaag: -0.1 m/s
86%
08:00
10°
Voelt als: 8.3°
1013.1 hPa
77%
8.9°
3
Windvlaag: 0.8 m/s
97%
09:00
10°
1013.8 hPa
84%
9.1°
4
Windvlaag: 0.8 m/s
98%
10:00
10°
1014.9 hPa
91%
9.2°
4
Windvlaag: 0.5 m/s
94%
11:00
11°
1015.7 hPa
91%
9.4°
4
Windvlaag: 2 m/s
71%
12:00
13°
1016.4 hPa
100%
9.4°
4
Windvlaag: 2 m/s
87%
13:00
14°
1016.9 hPa
97%
9.0°
3
Windvlaag: 1.8 m/s
41%
14:00
14°
1017.3 hPa
90%
8.8°
3
Windvlaag: 1.5 m/s
37%
15:00
14°
1018.4 hPa
100%
7.6°
3
Windvlaag: 1.3 m/s
51%
16:00
14°
1018.6 hPa
100%
7.6°
2
Windvlaag: 1.4 m/s
51%
17:00
14°
1018.8 hPa 16.4 mm
100%
7.6°
2
Windvlaag: 1.3 m/s
55%
18:00
14°
1019.1 hPa 16.6 mm
100%
8.7°
1
Windvlaag: 1.3 m/s
52%
19:00
12°
1019.5 hPa 16.8 mm
100%
8.3°
2
Windvlaag: 1.1 m/s
42%
20:00
11°
1020.1 hPa 16.6 mm
100%
8.2°
2
Windvlaag: 0.9 m/s
33%
21:00
11°
1020.5 hPa 16.3 mm
100%
8.4°
2
Windvlaag: 0.7 m/s
28%
22:00
10°
1020.8 hPa 16.3 mm
100%
8.3°
2
Windvlaag: 0.8 m/s
26%
23:00
10°
Voelt als: 9.0°
1021.4 hPa
100%
8.1°
2
Windvlaag: 0.9 m/s
33%
 08:32     19:02    Daglengte: 10:30 Dinsdag 22 Okt
00:00
10°
Voelt als: 8.8°
1021.8 hPa
100%
8.1°
2
Windvlaag: 0.9 m/s
28%
01:00
Voelt als: 9.2°
1021.9 hPa
100%
8.2°
1
Windvlaag: 0.8 m/s
17%
02:00
Voelt als: 8.8°
1022.0 hPa
100%
8.0°
1
Windvlaag: 0.7 m/s
16%
03:00
Voelt als: 7.4°
1022.9 hPa
100%
7.0°
1
Windvlaag: 0.3 m/s
9%
04:00
Voelt als: 6.7°
1022.9 hPa
100%
6.5°
1
Windvlaag: 0.3 m/s
15%
05:00
Voelt als: 6.2°
1022.6 hPa
100%
5.8°
1
Windvlaag: 0.5 m/s
15%
06:00
Voelt als: 6.5°
1022.5 hPa
100%
6.2°
1
Windvlaag: 0.4 m/s
16%
07:00
Voelt als: 4.9°
1022.8 hPa
100%
5.6°
2
Windvlaag: 0.5 m/s
28%
08:00
Voelt als: 5.7°
1023.3 hPa
100%
6.3°
1
Windvlaag: 0.5 m/s
42%
09:00
Voelt als: 7.0°
1023.4 hPa 48.7 mm
100%
6.7°
2
Windvlaag: 4.2 m/s
38%
Temp/Neerslag /Baro Onweer/Dauwpunt
    Temp Baro Neerslag Dauwpunt Wind Bewolking  
 08:28     19:07    Daglengte: 10:39 Vandaag
11:00
13°
1005.3 hPa   11.4°
3
82%
14:00
15°
1005.1 hPa   10.6°
3
65%
17:00
15°
1004.4 hPa   10.6°
2
87%
20:00
13°
1004.9 hPa   12.2°
1
91%
23:00
12°
1004.9 hPa 5.8 mm 11.8°
1
90%
 08:29     19:05    Daglengte: 10:36 Morgen
02:00
12°
1004.8 hPa 9.2 mm 11.1°
2
91%
05:00
12°
1004.0 hPa 8.5 mm 10.9°
3
91%
08:00
11°
1004.4 hPa 10.4 mm 10.4°
4
88%
11:00
12°
1004.8 hPa 13.5 mm 10.3°
5
78%
14:00
12°
1005.2 hPa 17.4 mm 9.6°
5
89%
17:00
12°
1005.1 hPa 17.3 mm 9.9°
5
90%
20:00
11°
1006.9 hPa 16.9 mm 9.3°
6
91%
23:00
11°
1008.5 hPa 26.0 mm 8.9°
6
91%
 08:31     19:03    Daglengte: 10:32 Maandag 21 Okt
02:00
11°
1010.0 hPa 22.5 mm 9.1°
5
90%
05:00
11°
1010.2 hPa 23.2 mm 9.1°
4
98%
08:00
10°
Voelt als: 8.3°
1013.1 hPa 18.3 mm 8.9°
3
97%
11:00
11°
1015.7 hPa   9.4°
4
71%
14:00
14°
1017.3 hPa   8.8°
3
37%
17:00
14°
1018.8 hPa 16.4 mm 7.6°
2
55%
20:00
11°
1020.1 hPa 49.9 mm 8.2°
2
33%
23:00
10°
Voelt als: 9.0°
1021.4 hPa 32.6 mm 8.1°
2
33%
 08:32     19:02    Daglengte: 10:30 Dinsdag 22 Okt
02:00
Voelt als: 8.8°
1022.0 hPa   8.0°
1
16%
05:00
Voelt als: 6.2°
1022.6 hPa   5.8°
1
15%
08:00
Voelt als: 5.7°
1023.3 hPa   6.3°
1
42%
11:00
10°
1023.5 hPa 146.2 mm 7.6°
2
26%
14:00
16°
1023.4 hPa 146.2 mm 8.2°
2
0%
17:00
14°
1021.9 hPa 39.2 mm 8.2°
3
46%
20:00
12°
1020.4 hPa 39.2 mm 8.1°
3
92%
23:00
12°
1019.0 hPa 39.3 mm 8.7°
4
92%
 08:34     19:00    Daglengte: 10:26 Woensdag 23 Okt
02:00
11°
1017.7 hPa 39.4 mm 9.2°
4
92%
05:00
11°
1015.9 hPa 39.6 mm 9.4°
4
92%
08:00
11°
1014.2 hPa 39.7 mm 9.5°
4
92%
11:00
14°
1013.1 hPa 39.7 mm 11.0°
4
79%
14:00
16°
1011.9 hPa 39.7 mm 12.3°
3
67%
17:00
16°
1010.8 hPa 39.7 mm 12.8°
3
78%
20:00
15°
1009.9 hPa 39.7 mm 13.1°
2
90%
23:00
14°
1009.3 hPa 39.7 mm 12.7°
2
91%
 08:35     18:58    Daglengte: 10:23 Donderdag 24 Okt
02:00
13°
1008.7 hPa 39.7 mm 12.4°
2
92%
05:00
13°
1008.7 hPa 40.1 mm 12.3°
3
91%
08:00
13°
1008.9 hPa 40.1 mm 12.2°
3
91%
11:00
16°
1010.2 hPa 40.1 mm 13.2°
2
89%
14:00
18°
1011.4 hPa 40.1 mm 14.0°
2
87%
17:00
17°
1012.7 hPa 40.1 mm 13.9°
2
89%
20:00
15°
1014.2 hPa 40.2 mm 13.6°
2
92%
23:00
14°
1016.1 hPa 40.2 mm 12.7°
2
54%
 08:37     18:56    Daglengte: 10:19 Vrijdag 25 Okt
02:00
12°
1017.8 hPa 40.2 mm 11.6°
2
17%
05:00
11°
1018.8 hPa 40.2 mm 11.2°
2
55%
08:00
11°
1019.9 hPa 40.2 mm 10.9°
1
92%
11:00
13°
1021.0 hPa 40.2 mm 12.1°
2
92%
14:00
15°
1022.1 hPa 40.2 mm 13.3°
2
92%
17:00
14°
1022.1 hPa 40.2 mm 12.5°
2
46%
20:00
13°
1022.2 hPa 40.2 mm 11.6°
2
0%
23:00
12°
1022.5 hPa 40.2 mm 10.9°
2
0%
 08:38     18:55    Daglengte: 10:17 Zaterdag 26 Okt
02:00
11°
1022.6 hPa 40.2 mm 10.3°
2
0%
05:00
11°
1022.3 hPa 40.2 mm 10.1°
2
0%
08:00
10°
1022.0 hPa 80.5 mm 9.9°
2
0%
14:00
19°
1021.2 hPa 80.5 mm 13.9°
3
0%
20:00
15°
1020.1 hPa 80.5 mm 13.2°
2
0%
 08:40     18:53    Daglengte: 10:13 Zondag 27 Okt
02:00
10°
1021.5 hPa 80.5 mm 9.9°
2
6%
07:00
12°
1021.4 hPa 80.5 mm 11.8°
2
92%
13:00
16°
1021.8 hPa 80.5 mm 13.4°
3
92%
19:00
15°
1021.1 hPa 80.5 mm 12.9°
3
92%
 08:41     18:51    Daglengte: 10:10 Maandag 28 Okt
01:00
14°
1020.4 hPa 80.5 mm 12.3°
2
92%
07:00
13°
1019.2 hPa 80.5 mm 11.6°
3
68%
13:00
16°
1018.9 hPa 80.5 mm 11.5°
3
84%
19:00
14°
1018.3 hPa 80.7 mm 11.2°
3
87%
 08:43     18:50    Daglengte: 10:07 Dinsdag 29 Okt
01:00
11°
1018.1 hPa 80.9 mm 9.9°
2
1%
07:00
10°
1017.5 hPa 0.2 mm 8.2°
2
36%
13:00
16°
1017.5 hPa 0.2 mm 9.5°
3
39%
19:00
13°
1016.9 hPa 0.4 mm 9.3°
2
34%
 08:44     18:48    Daglengte: 10:04 Woensdag 30 Okt
01:00
11°
1017.6 hPa 0.3 mm 8.8°
2
36%
07:00
10°
Voelt als: 9.3°
1017.6 hPa 0.1 mm 8.2°
2
32%
13:00
16°
1018.0 hPa   9.3°
2
25%
19:00
13°
1017.7 hPa   9.1°
2
20%
 08:46     18:46    Daglengte: 10:00 Donderdag 31 Okt
01:00
11°
1018.2 hPa 0.3 mm 8.4°
2
29%
07:00
Voelt als: 7.9°
1017.8 hPa   7.5°
3
33%
13:00
15°
1018.0 hPa 0.3 mm 8.5°
3
35%
19:00
12°
1017.8 hPa 0.6 mm 7.4°
3
42%
 08:47     18:45    Daglengte: 9:58 Vrijdag 01 Nov
01:00
Voelt als: 8.4°
1018.5 hPa 0.3 mm 6.7°
2
33%
07:00
Voelt als: 7.0°
1018.6 hPa 0.2 mm 5.9°
2
23%
13:00
14°
1019.0 hPa   6.4°
2
20%
19:00
11°
1018.3 hPa   6.5°
2
21%
 08:49     18:43    Daglengte: 9:54 Zaterdag 02 Nov
01:00
Voelt als: 8.1°
1018.0 hPa   6.3°
2
31%
07:00
Voelt als: 6.9°
1017.0 hPa 0.5 mm 5.9°
2
33%
13:00
14°
1016.8 hPa 0.3 mm 7.3°
2
40%
19:00
11°
1016.3 hPa 0.2 mm 7.3°
1
45%
 08:50     18:42    Daglengte: 9:52 Zondag 03 Nov
01:00
10°
1016.4 hPa 0.5 mm 7.4°
2
42%
07:00
Voelt als: 8.1°
1015.1 hPa 1.1 mm 6.8°
2
53%
  CAPE Lifted Index Hail Supercell Tornado SRH 3km CL BTM PRES CL TOP PRES Swiss DWD icon SMHI TS
 08:28     19:07    Daglengte: 10:39 Vandaag
10:00 0 J/kg 0.0 K 0 % 0 % 0 % 0 m²/s² 0 0 13.83 3
11:00 36 J/kg 2.2 K 0 % 0 % 0 % 0 m²/s² 0 0 3.76 3
12:00 46 J/kg 2.7 K 0 % 0 % 0 % 0 m²/s² 0 0 3.96 3
13:00 54 J/kg 2.2 K 0 % 0 % 0 % 0 m²/s² 0 0 3.4 3
14:00 75 J/kg 1.8 K 0 % 0 % 0 % 0 m²/s² 0 0 2.61 3
15:00 86 J/kg 1.5 K 0 % 0 % 0 % 0 m²/s² 0 0 2.46 3
16:00 101 J/kg 1.4 K 0 % 0 % 0 % 0 m²/s² 0 0 1.94 3
17:00 112 J/kg 1.2 K 0 % 0 % 0 % 0 m²/s² 0 0 1.65 3
18:00 114 J/kg 1.2 K 0 % 0 % 0 % 0 m²/s² 0 0 1.44 3
19:00 137 J/kg 1.3 K 0 % 0 % 0 % 0 m²/s² 0 0 1.51 3
20:00 137 J/kg 1.6 K 0 % 0 % 0 % 0 m²/s² 0 0 1.93 3
21:00 149 J/kg 1.9 K 0 % 0 % 0 % 0 m²/s² 0 0 2.2 61
22:00 169 J/kg 1.8 K 0 % 0 % 0 % 0 m²/s² 0 0 2.01 61
23:00 184 J/kg 1.6 K 0 % 0 % 0 % 0 m²/s² 0 0 1.81 61
 08:29     19:05    Daglengte: 10:36 Morgen
00:00 150 J/kg 2.4 K 0 % 0 % 0 % 0 m²/s² 0 0 2.61 61
01:00 59 J/kg 3.4 K 0 % 0 % 0 % 0 m²/s² 0 0 3.64 61
02:00 19 J/kg 4.6 K 0 % 0 % 0 % 0 m²/s² 0 0 4.81 61
03:00 13 J/kg 4.8 K 0 % 0 % 0 % 0 m²/s² 0 0 5.01 61
04:00 56 J/kg 3.8 K 0 % 0 % 0 % 0 m²/s² 0 0 4.01 61
05:00 65 J/kg 3.5 K 0 % 0 % 0 % 0 m²/s² 0 0 3.68 61
06:00 27 J/kg 4.1 K 0 % 0 % 0 % 0 m²/s² 0 0 4.28 61
07:00 37 J/kg 4.4 K 0 % 0 % 0 % 0 m²/s² 0 0 4.58 61
08:00 46 J/kg 3.8 K 0 % 0 % 0 % 0 m²/s² 0 0 3.92 61
09:00 26 J/kg 4.1 K 0 % 0 % 0 % 0 m²/s² 0 0 4.4 61
10:00 5 J/kg 5.6 K 0 % 0 % 0 % 0 m²/s² 0 0 5.81 61
11:00 26 J/kg 5.5 K 0 % 0 % 0 % 0 m²/s² 0 0 5.53 61
12:00 36 J/kg 4.4 K 0 % 0 % 0 % 0 m²/s² 0 0 4.94 61
13:00 54 J/kg 3.4 K 0 % 0 % 0 % 0 m²/s² 0 0 3.7 61
14:00 60 J/kg 2.3 K 0 % 0 % 0 % 0 m²/s² 0 0 3.11 61
15:00 21 J/kg 2.2 K 0 % 0 % 0 % 0 m²/s² 0 0 3.4 80
16:00 2 J/kg 1.5 K 0 % 0 % 0 % 0 m²/s² 0 0 3.93 61
17:00 36 J/kg 2.3 K 0 % 0 % 0 % 0 m²/s² 0 0 4.16 80
18:00 42 J/kg 3.0 K 0 % 0 % 0 % 0 m²/s² 0 0 4.14 61
19:00 4 J/kg 4.3 K 0 % 0 % 0 % 0 m²/s² 0 0 5.59 61
20:00 1 J/kg 4.3 K 0 % 0 % 0 % 0 m²/s² 0 0 5.2 61
21:00 8 J/kg 3.8 K 0 % 0 % 0 % 0 m²/s² 0 0 4.37 61
22:00 1 J/kg 3.2 K 0 % 0 % 0 % 0 m²/s² 0 0 3.44 61
23:00 0 J/kg 3.2 K 0 % 0 % 0 % 0 m²/s² 0 0 3.44 80
 08:31     19:03    Daglengte: 10:32 Maandag 21 Okt
00:00 1 J/kg 3.7 K 0 % 0 % 0 % 0 m²/s² 0 0 3.94 61
01:00 0 J/kg 3.6 K 0 % 0 % 0 % 0 m²/s² 0 0 3.9 80
02:00 0 J/kg 3.5 K 0 % 0 % 0 % 0 m²/s² 0 0 3.83 80
03:00 0 J/kg 3.9 K 0 % 0 % 0 % 0 m²/s² 0 0 4.71 80
04:00 0 J/kg 3.5 K 0 % 0 % 0 % 0 m²/s² 0 0 4.55 80
05:00 0 J/kg 3.0 K 0 % 0 % 0 % 0 m²/s² 0 0 4.05 80
06:00 0 J/kg 2.6 K 0 % 0 % 0 % 0 m²/s² 0 0 3.74 80
07:00 0 J/kg 2.1 K 0 % 0 % 0 % 0 m²/s² 0 0 3.18 80
08:00 0 J/kg 1.7 K 0 % 0 % 0 % 0 m²/s² 0 0 2.72 3
09:00 0 J/kg 1.3 K 0 % 0 % 0 % 0 m²/s² 0 0 2.44 3
10:00 1 J/kg 1.3 K 0 % 0 % 0 % 0 m²/s² 0 0 2.68 3
11:00 2 J/kg 1.2 K 0 % 0 % 0 % 0 m²/s² 0 0 2.85 3
12:00 10 J/kg 1.0 K 0 % 0 % 0 % 0 m²/s² 0 0 2.89 3
13:00 57 J/kg 0.5 K 0 % 0 % 0 % 0 m²/s² 0 0 1.73 2
14:00 81 J/kg 0.1 K 0 % 0 % 0 % 0 m²/s² 0 0 1.27 1
15:00 120 J/kg -0.3 K 0 % 0 % 0 % 0 m²/s² 0 0 1.14
16:00 239 J/kg -0.9 K 0 % 0 % 0 % 0 m²/s² 0 0 0.48
17:00 295 J/kg -1.3 K 0 % 0 % 0 % 0 m²/s² 0 0 0.29
18:00 352 J/kg -1.5 K 0 % 0 % 0 % 0 m²/s² 0 0 -0.12
19:00 345 J/kg -1.6 K 0 % 0 % 0 % 0 m²/s² 0 0 0.17
20:00 289 J/kg -1.4 K 0 % 0 % 0 % 0 m²/s² 0 0 0.67
21:00 266 J/kg -1.4 K 0 % 0 % 0 % 0 m²/s² 0 0 0.73
22:00 248 J/kg -1.4 K 0 % 0 % 0 % 0 m²/s² 0 0 1.3
23:00 218 J/kg -1.3 K 0 % 0 % 0 % 0 m²/s² 0 0 1.82
 08:32     19:02    Daglengte: 10:30 Dinsdag 22 Okt
00:00 210 J/kg -1.3 K 0 % 0 % 0 % 0 m²/s² 0 0 2.33
01:00 162 J/kg -1.0 K 0 % 0 % 0 % 0 m²/s² 0 0 3.02
02:00 69 J/kg -0.6 K 0 % 0 % 0 % 0 m²/s² 0 0 3.87
03:00 0 J/kg 0.0 K 0 % 0 % 0 % 0 m²/s² 0 0 4.71
04:00 1 J/kg 0.5 K 0 % 0 % 0 % 0 m²/s² 0 0 5.06
05:00 1 J/kg 1.2 K 0 % 0 % 0 % 0 m²/s² 0 0 5.43
06:00 3 J/kg 2.1 K 0 % 0 % 0 % 0 m²/s² 0 0 6.12
07:00 2 J/kg 3.0 K 0 % 0 % 0 % 0 m²/s² 0 0 6.45
08:00 1 J/kg 3.9 K 0 % 0 % 0 % 0 m²/s² 0 0 7.53
09:00 1 J/kg 5.3 K 0 % 0 % 0 % 0 m²/s² 0 0 10.13
Temp Baro Wind Neerslag
  EWN Forecast EWN WRFDA DWD ICON FMI HIRLAM MET Norway GFS
 08:28     19:07    Daglengte: 10:39 Vandaag
11:00 13.5° 1005.3 hPa 2.8 m/s 0.0 mm 13.6° 1004.1 hPa 1.8 m/s 2.9 mm 13.6° 1006.1 hPa 3.3 m/s 4.4 mm 13.2° 1004.5 hPa 2.4 m/s 0.0 mm 13.7° 1005.3 hPa 2.9 m/s 0.0 mm 13.8° 1005.0 hPa 3.0 m/s
14:00 15.1° 1005.1 hPa 2.5 m/s 0.0 mm 16.9° 1003.5 hPa 1.9 m/s 8.7 mm 15.6° 1005.8 hPa 3.3 m/s 0.0 mm 14.4° 1003.9 hPa 1.5 m/s 0.0 mm 15.1° 1005.3 hPa 3.0 m/s 0.0 mm 17.3° 1004.8 hPa 3.5 m/s
17:00 15.3° 1004.4 hPa 1.8 m/s 0.0 mm 17.1° 1002.4 hPa 1.7 m/s 8.7 mm 15.8° 1004.9 hPa 2.2 m/s 0.0 mm 14.7° 1002.9 hPa 1.2 m/s 0.0 mm 15.2° 1004.6 hPa 2.0 m/s 0.0 mm 15.7° 1003.6 hPa 2.6 m/s
20:00 13.3° 1004.9 hPa 0.9 m/s 0.0 mm 13.7° 1003.0 hPa 0.6 m/s 15.2 mm 14.2° 1005.7 hPa 0.6 m/s 0.0 mm 14.0° 1002.6 hPa 1.1 m/s 0.0 mm 12.5° 1005.3 hPa 1.4 m/s 0.6 mm 13.7° 1004.3 hPa 1.9 m/s
23:00 12.5° 1004.9 hPa 1.1 m/s 5.8 mm 13.4° 1002.7 hPa 1.6 m/s 28.9 mm 12.8° 1005.7 hPa 0.6 m/s 0.4 mm 13.8° 1003.3 hPa 2.0 m/s 0.0 mm 11.9° 1005.1 hPa 1.0 m/s 0.7 mm 12.8° 1004.6 hPa 1.3 m/s
 08:29     19:05    Daglengte: 10:36 Morgen
02:00 12.0° 1004.8 hPa 1.5 m/s 9.2 mm 12.6° 1003.2 hPa 1.4 m/s 43.7 mm 12.1° 1005.9 hPa 0.7 m/s 0.8 mm 13.3° 1002.5 hPa 2.8 m/s 0.0 mm 11.7° 1005.0 hPa 1.6 m/s 0.0 mm 12.3° 1004.8 hPa 0.6 m/s
05:00 11.6° 1004.0 hPa 2.8 m/s 8.5 mm 12.1° 1001.5 hPa 3.3 m/s 51.6 mm 11.7° 1005.3 hPa 1.8 m/s 3.1 mm 12.8° 1001.0 hPa 3.4 m/s 0.0 mm 11.2° 1004.4 hPa 2.7 m/s 0.5 mm 11.9° 1003.7 hPa 2.3 m/s
08:00 11.3° 1004.4 hPa 3.8 m/s 10.4 mm 11.4° 1002.2 hPa 4.8 m/s 62.1 mm 11.8° 1006.2 hPa 2.7 m/s 3.3 mm 12.6° 999.8 hPa 5.9 m/s 0.0 mm 11.1° 1004.8 hPa 3.0 m/s 1.3 mm 11.7° 1003.6 hPa 4.8 m/s
11:00 11.8° 1004.8 hPa 4.5 m/s 13.5 mm 11.4° 1001.9 hPa 4.4 m/s 73.1 mm 12.2° 1007.6 hPa 4.0 m/s 2.8 mm 12.1° 999.1 hPa 6.8 m/s 0.0 mm 12.0° 1005.3 hPa 3.8 m/s 1.1 mm 11.4° 1003.8 hPa 7.3 m/s
14:00 12.3° 1005.2 hPa 5.2 m/s 17.4 mm 12.0° 1002.3 hPa 4.8 m/s 87.6 mm 12.7° 1007.8 hPa 4.5 m/s 2.8 mm 11.9° 997.4 hPa 9.2 m/s 0.0 mm 13.3° 1006.4 hPa 4.2 m/s 0.5 mm 11.4° 1003.7 hPa 6.3 m/s
17:00 11.9° 1005.1 hPa 5.4 m/s 17.3 mm 12.2° 1001.6 hPa 5.2 m/s 94.3 mm 12.7° 1007.9 hPa 4.2 m/s 1.7 mm 10.8° 1000.6 hPa 8.8 m/s 0.0 mm 12.2° 1006.1 hPa 4.9 m/s 2.8 mm 11.9° 1003.0 hPa 7.7 m/s
20:00 11.3° 1006.9 hPa 5.5 m/s 16.9 mm 11.1° 1002.4 hPa 9.4 m/s 102.2 mm 12.2° 1009.5 hPa 4.8 m/s 4.3 mm 11.2° 1006.5 hPa 6.3 m/s 0.0 mm 11.5° 1007.6 hPa 5.2 m/s 1.2 mm 11.8° 1003.5 hPa 6.9 m/s
23:00 11.1° 1008.5 hPa 5.5 m/s 26.0 mm 10.5° 1004.8 hPa 6.8 m/s 116.0 mm 12.1° 1009.9 hPa 4.7 m/s 4.2 mm 11.2° 1010.5 hPa 4.4 m/s 0.0 mm 11.2° 1008.7 hPa 5.8 m/s 0.0 mm 12.0° 1004.5 hPa 8.1 m/s
 08:31     19:03    Daglengte: 10:32 Maandag 21 Okt
02:00 10.6° 1010.0 hPa 5.4 m/s 22.5 mm 10.5° 1007.6 hPa 7.8 m/s 128.2 mm 12.1° 1009.8 hPa 4.2 m/s 2.5 mm 9.3° 1013.5 hPa 2.5 m/s 0.0 mm 10.6° 1010.7 hPa 5.6 m/s 2.0 mm 11.5° 1005.8 hPa 6.4 m/s
05:00 10.5° 1010.2 hPa 4.4 m/s 23.2 mm 10.4° 1009.9 hPa 5.7 m/s 133.5 mm 11.9° 1009.8 hPa 3.4 m/s 1.2 mm 10.2° 1012.6 hPa 4.3 m/s 2.0 mm 10.6° 1008.3 hPa 8.2 m/s
08:00 9.9° 1013.1 hPa 3.2 m/s 18.3 mm 10.2° 1012.9 hPa 4.2 m/s 133.9 mm 12.7° 1011.5 hPa 3.0 m/s 1.0 mm 8.6° 1015.5 hPa 2.8 m/s 0.0 mm 9.9° 1012.3 hPa 6.2 m/s
11:00 11.3° 1015.7 hPa 3.7 m/s 0.0 mm 11.2° 1014.8 hPa 3.9 m/s 138.6 mm 13.9° 1013.3 hPa 4.8 m/s 0.3 mm 11.1° 1018.4 hPa 2.4 m/s 0.0 mm 9.9° 1015.9 hPa 4.0 m/s
14:00 14.3° 1017.3 hPa 2.9 m/s 0.0 mm 12.5° 1016.8 hPa 2.0 m/s 143.3 mm 16.4° 1014.6 hPa 4.9 m/s 0.2 mm 14.7° 1019.7 hPa 2.4 m/s 0.0 mm 13.6° 1018.0 hPa 3.5 m/s
17:00 14.2° 1018.8 hPa 2.0 m/s 16.4 mm 14.4° 1017.0 hPa 1.1 m/s 145.2 mm 15.0° 1019.8 hPa 1.7 m/s 0.0 mm 13.9° 1018.2 hPa 3.2 m/s
20:00 11.1° 1020.1 hPa 1.9 m/s 49.9 mm 12.5° 1018.5 hPa 1.4 m/s 145.3 mm 10.9° 1021.1 hPa 1.7 m/s 0.0 mm 10.4° 1020.1 hPa 2.0 m/s
23:00 9.7° 1021.4 hPa 1.9 m/s 32.6 mm 11.7° 1019.5 hPa 1.1 m/s 145.7 mm 8.7° 1022.4 hPa 1.9 m/s 0.0 mm 8.9° 1021.9 hPa 0.8 m/s
 08:32     19:02    Daglengte: 10:30 Dinsdag 22 Okt
02:00 9.0° 1022.0 hPa 1.2 m/s 0.0 mm 9.8° 1020.3 hPa 1.6 m/s 145.8 mm 8.0° 1023.2 hPa 1.0 m/s 0.0 mm 8.3° 1022.3 hPa 0.6 m/s
05:00 6.7° 1022.6 hPa 1.3 m/s 0.0 mm 8.7° 1020.5 hPa 1.3 m/s 145.9 mm 6.4° 1022.9 hPa 1.3 m/s 0.0 mm 7.6° 1022.4 hPa 0.8 m/s
08:00 6.5° 1023.3 hPa 1.4 m/s 0.0 mm 8.0° 1020.9 hPa 1.5 m/s 146.1 mm 6.2° 1023.7 hPa 1.4 m/s 0.0 mm 6.9° 1022.7 hPa 0.6 m/s
11:00 10.5° 1023.5 hPa 1.7 m/s 146.2 mm 7.6° 1022.0 hPa 1.8 m/s 146.2 mm 10.9° 1023.8 hPa 1.6 m/s 10.7° 1022.6 hPa 2.0 m/s
14:00 15.6° 1023.4 hPa 2.1 m/s 146.2 mm 14.9° 1020.7 hPa 3.2 m/s 146.2 mm 15.7° 1023.8 hPa 1.9 m/s 14.5° 1021.9 hPa 3.5 m/s
17:00 14.1° 1021.9 hPa 2.6 m/s 39.2 mm 14.0° 1022.1 hPa 2.5 m/s 14.9° 1020.1 hPa 3.2 m/s 39.2 mm
20:00 12.2° 1020.4 hPa 3.2 m/s 39.2 mm 12.3° 1020.4 hPa 3.2 m/s 10.9° 1020.1 hPa 3.0 m/s 39.2 mm
23:00 11.6° 1019.0 hPa 3.5 m/s 39.3 mm 11.7° 1019.0 hPa 3.5 m/s 11.6° 1019.4 hPa 3.5 m/s 39.3 mm
 08:34     19:00    Daglengte: 10:26 Woensdag 23 Okt
02:00 11.0° 1017.7 hPa 3.9 m/s 39.4 mm 11.0° 1017.6 hPa 3.9 m/s 10.9° 1018.3 hPa 3.7 m/s 39.4 mm
05:00 10.9° 1015.9 hPa 4.0 m/s 39.6 mm 10.9° 1015.9 hPa 4.0 m/s 11.1° 1016.1 hPa 4.4 m/s 39.6 mm
08:00 10.7° 1014.2 hPa 4.0 m/s 39.7 mm 10.8° 1014.1 hPa 4.0 m/s 9.6° 1015.4 hPa 3.5 m/s 39.7 mm
11:00 13.5° 1013.1 hPa 3.5 m/s 39.7 mm 13.7° 1013.0 hPa 3.5 m/s 11.9° 1014.4 hPa 4.0 m/s 39.7 mm
14:00 16.3° 1011.9 hPa 3.2 m/s 39.7 mm 16.5° 1011.9 hPa 3.0 m/s 14.5° 1012.3 hPa 4.9 m/s 39.7 mm
17:00 15.6° 1010.8 hPa 2.6 m/s 39.7 mm 15.6° 1010.9 hPa 2.5 m/s 15.8° 1010.0 hPa 4.3 m/s 39.7 mm
20:00 14.6° 1009.9 hPa 2.2 m/s 39.7 mm 14.6° 1009.9 hPa 2.0 m/s 14.3° 1009.4 hPa 4.3 m/s 39.7 mm
23:00 13.9° 1009.3 hPa 2.5 m/s 39.7 mm 13.9° 1009.2 hPa 2.2 m/s 14.0° 1009.8 hPa 5.5 m/s 39.7 mm
 08:35     18:58    Daglengte: 10:23 Donderdag 24 Okt
02:00 13.2° 1008.7 hPa 2.5 m/s 39.7 mm 13.2° 1008.6 hPa 2.4 m/s 12.8° 1009.3 hPa 3.3 m/s 39.7 mm
05:00 13.0° 1008.7 hPa 2.6 m/s 40.1 mm 13.0° 1008.8 hPa 2.5 m/s 12.9° 1008.7 hPa 3.6 m/s 40.1 mm
08:00 12.7° 1008.9 hPa 2.5 m/s 40.1 mm 12.8° 1008.9 hPa 2.6 m/s 12.1° 1009.2 hPa 1.7 m/s 40.1 mm
11:00 15.5° 1010.2 hPa 2.1 m/s 40.1 mm 15.6° 1010.1 hPa 2.1 m/s 15.1° 1010.7 hPa 2.2 m/s 40.1 mm
14:00 18.4° 1011.4 hPa 1.6 m/s 40.1 mm 18.3° 1011.4 hPa 1.6 m/s 19.1° 1010.9 hPa 1.1 m/s 40.1 mm
17:00 17.1° 1012.7 hPa 1.9 m/s 40.1 mm 16.9° 1012.9 hPa 1.9 m/s 19.3° 1011.0 hPa 2.1 m/s 40.1 mm
20:00 15.5° 1014.2 hPa 2.1 m/s 40.2 mm 15.5° 1014.4 hPa 2.2 m/s 15.1° 1012.4 hPa 0.8 m/s 40.2 mm
23:00 13.6° 1016.1 hPa 2.0 m/s 40.2 mm 13.6° 1016.2 hPa 2.0 m/s 13.4° 1014.5 hPa 2.5 m/s 40.2 mm
 08:37     18:56    Daglengte: 10:19 Vrijdag 25 Okt
02:00 11.8° 1017.8 hPa 1.8 m/s 40.2 mm 11.7° 1018.0 hPa 1.8 m/s 12.3° 1015.3 hPa 1.6 m/s 40.2 mm
05:00 11.4° 1018.8 hPa 1.6 m/s 40.2 mm 11.4° 1019.1 hPa 1.6 m/s 11.3° 1015.9 hPa 1.9 m/s 40.2 mm
08:00 11.0° 1019.9 hPa 1.4 m/s 40.2 mm 11.1° 1020.2 hPa 1.3 m/s 10.4° 1016.5 hPa 2.0 m/s 40.2 mm
11:00 13.1° 1021.0 hPa 1.6 m/s 40.2 mm 13.0° 1021.4 hPa 1.6 m/s 13.7° 1017.4 hPa 2.1 m/s 40.2 mm
14:00 15.1° 1022.1 hPa 1.9 m/s 40.2 mm 14.9° 1022.5 hPa 1.9 m/s 16.8° 1017.5 hPa 2.1 m/s 40.2 mm
17:00 14.3° 1022.1 hPa 1.9 m/s 40.2 mm 14.0° 1022.6 hPa 1.9 m/s 17.4° 1016.5 hPa 1.3 m/s 40.2 mm
20:00 13.2° 1022.2 hPa 1.9 m/s 40.2 mm 13.1° 1022.7 hPa 2.0 m/s 13.8° 1016.8 hPa 1.1 m/s 40.2 mm
23:00 12.1° 1022.5 hPa 1.9 m/s 40.2 mm 12.0° 1022.9 hPa 1.9 m/s 13.1° 1017.5 hPa 1.5 m/s 40.2 mm
 08:38     18:55    Daglengte: 10:17 Zaterdag 26 Okt
02:00 11.0° 1022.6 hPa 1.9 m/s 40.2 mm 10.9° 1023.1 hPa 1.8 m/s 12.5° 1016.6 hPa 2.4 m/s 40.2 mm
05:00 10.7° 1022.3 hPa 2.0 m/s 40.2 mm 10.7° 1022.9 hPa 2.0 m/s 11.8° 1015.8 hPa 2.6 m/s 40.2 mm
08:00 10.5° 1022.0 hPa 2.1 m/s 40.2 mm 10.4° 1022.6 hPa 2.1 m/s 11.3° 1015.6 hPa 2.7 m/s 40.2 mm
14:00 18.6° 1021.2 hPa 2.5 m/s 40.2 mm 18.6° 1021.9 hPa 2.4 m/s 19.0° 1013.9 hPa 3.7 m/s 40.2 mm
20:00 14.7° 1020.1 hPa 2.1 m/s 40.2 mm 14.7° 1020.9 hPa 2.0 m/s 15.2° 1011.1 hPa 2.9 m/s 40.2 mm
 08:40     18:53    Daglengte: 10:13 Zondag 27 Okt
02:00 10.1° 1021.5 hPa 2.4 m/s 40.2 mm 9.9° 1022.5 hPa 2.4 m/s 12.7° 1010.6 hPa 2.9 m/s 40.2 mm
07:00 12.0° 1021.4 hPa 2.2 m/s 40.2 mm 12.1° 1022.4 hPa 2.1 m/s 10.8° 1009.9 hPa 2.9 m/s 40.2 mm
13:00 16.1° 1021.8 hPa 2.9 m/s 40.2 mm 16.0° 1022.9 hPa 2.9 m/s 17.4° 1010.3 hPa 2.5 m/s 40.2 mm
19:00 15.2° 1021.1 hPa 2.9 m/s 40.2 mm 15.2° 1022.0 hPa 3.1 m/s 15.2° 1011.2 hPa 0.5 m/s 40.2 mm
 08:41     18:51    Daglengte: 10:10 Maandag 28 Okt
01:00 13.8° 1020.4 hPa 2.3 m/s 40.3 mm 13.8° 1021.1 hPa 2.5 m/s 14.4° 1012.5 hPa 0.2 m/s 40.3 mm
07:00 12.9° 1019.2 hPa 2.7 m/s 40.3 mm 12.9° 1019.8 hPa 2.8 m/s 13.4° 1012.8 hPa 1.0 m/s 40.3 mm
13:00 16.0° 1018.9 hPa 3.2 m/s 40.3 mm 15.8° 1019.3 hPa 3.3 m/s 18.1° 1014.2 hPa 1.9 m/s 40.3 mm
19:00 13.7° 1018.3 hPa 3.0 m/s 40.4 mm 13.6° 1018.6 hPa 3.0 m/s 14.9° 1014.5 hPa 2.6 m/s 40.4 mm
 08:43     18:50    Daglengte: 10:07 Dinsdag 29 Okt
01:00 10.7° 1018.1 hPa 2.2 m/s 40.5 mm 10.5° 1018.4 hPa 2.1 m/s 12.5° 1015.1 hPa 3.0 m/s 40.5 mm
07:00 10.1° 1017.5 hPa 2.4 m/s 0.2 mm
13:00 16.0° 1017.5 hPa 2.8 m/s 0.2 mm
19:00 13.0° 1016.9 hPa 1.8 m/s 0.4 mm
 08:44     18:48    Daglengte: 10:04 Woensdag 30 Okt
01:00 11.1° 1017.6 hPa 1.9 m/s 0.3 mm
07:00 9.9° 1017.6 hPa 1.8 m/s 0.1 mm
13:00 16.2° 1018.0 hPa 1.8 m/s 0.0 mm
19:00 12.8° 1017.7 hPa 1.9 m/s 0.0 mm
 08:46     18:46    Daglengte: 10:00 Donderdag 31 Okt
01:00 10.8° 1018.2 hPa 2.5 m/s 0.3 mm
07:00 9.4° 1017.8 hPa 2.8 m/s 0.0 mm
13:00 15.1° 1018.0 hPa 3.3 m/s 0.3 mm
19:00 11.8° 1017.8 hPa 2.5 m/s 0.6 mm
 08:47     18:45    Daglengte: 9:58 Vrijdag 01 Nov
01:00 9.4° 1018.5 hPa 2.1 m/s 0.3 mm
07:00 7.9° 1018.6 hPa 1.7 m/s 0.2 mm
13:00 14.3° 1019.0 hPa 1.9 m/s 0.0 mm
19:00 10.7° 1018.3 hPa 1.7 m/s 0.0 mm
 08:49     18:43    Daglengte: 9:54 Zaterdag 02 Nov
01:00 9.0° 1018.0 hPa 2.0 m/s 0.0 mm
07:00 8.1° 1017.0 hPa 2.2 m/s 0.5 mm
13:00 14.4° 1016.8 hPa 2.3 m/s 0.3 mm
19:00 11.5° 1016.3 hPa 1.4 m/s 0.2 mm
 08:50     18:42    Daglengte: 9:52 Zondag 03 Nov
01:00 10.0° 1016.4 hPa 1.6 m/s 0.5 mm
07:00 9.2° 1015.1 hPa 2.2 m/s 1.1 mm
FMI Hirlam - 7.5 km EWN WRFDA - 12 km DWD ICON - 7 km GFS - 25 km Basiskaart






























































Updatetijd (Europe/Amsterdam) Resolutie Lengte Stap
FMI Hirlam 07:00, 13:00, 19:00, 01:00 7.5 km 49h 1h
EWN WRFDA 09:15, 15:15, 21:15, 03:15 12 km 73h 1h
DWD ICON 11:45, 17:45, 23:45, 05:45 7 km 75h 1h
GFS 08:45, 14:45, 20:45, 02:45 25 km 237h 3h
30+ mm
25-30 mm
20-25 mm
15-20 mm
10-15 mm
6-10 mm
4-6 mm
2-4 mm
1-2 mm
0.5-1 mm
0.2-0.5 mm
0.1-0.2 mm
30+ mm
25-30 mm
20-25 mm
15-20 mm
10-15 mm
6-10 mm
4-6 mm
2-4 mm
1-2 mm
0.5-1 mm
0.2-0.5 mm
0.1-0.2 mm
Sneeuwval
Natte sneeuw
Hagel
Vorst
30+ mm
25-30 mm
20-25 mm
15-20 mm
10-15 mm
6-10 mm
4-6 mm
2-4 mm
1-2 mm
0.5-1 mm
0.2-0.5 mm
0.1-0.2 mm
Sneeuwval
Natte sneeuw
Hagel
Vorst
Onweer
50 mm
40 mm
30 mm
26 mm
22 mm
18 mm
14 mm
10 mm
9 mm
8 mm
7 mm
6 mm
5 mm
4.5 mm
4 mm
3.5 mm
3 mm
2.5 mm
2 mm
1.5 mm
1 mm
0.8 mm
0.6 mm
0.4 mm
0.2 mm
0.05 mm
35°
30°
25°
20°
15°
10°
-5°
-10°
-15°
-20°
-25°
-30°
-35°
33> m/s
29 m/s
25 m/s
21 m/s
17 m/s
14 m/s
11 m/s
8 m/s
5 m/s
3 m/s
0 m/s
2600 J/kg
2400 J/kg
2200 J/kg
2000 J/kg
1800 J/kg
1600 J/kg
1400 J/kg
1200 J/kg
1000 J/kg
800 J/kg
600 J/kg
400 J/kg
200 J/kg
70 dBZ
65 dBZ
60 dBZ
55 dBZ
50 dBZ
45 dBZ
40 dBZ
35 dBZ
30 dBZ
25 dBZ
20 dBZ
15 dBZ
10 dBZ
5 dBZ
-1 K
-2 K
-3 K
-4 K
-5 K
-6 K
-7 K
-8 K
-9 K
950 m²/s²
900 m²/s²
850 m²/s²
800 m²/s²
750 m²/s²
700 m²/s²
650 m²/s²
600 m²/s²
550 m²/s²
500 m²/s²
450 m²/s²
400 m²/s²
350 m²/s²
300 m²/s²
250 m²/s²
200 m²/s²
150 m²/s²
100 m²/s²
46 m/s
44 m/s
42 m/s
40 m/s
38 m/s
36 m/s
34 m/s
32 m/s
30 m/s
28 m/s
26 m/s
24 m/s
22 m/s
20 m/s
16 m/s
12 m/s
8 m/s
4 m/s
30 m/s
28 m/s
26 m/s
24 m/s
22 m/s
20 m/s
18 m/s
16 m/s
14 m/s
12 m/s
10 m/s
8 m/s
6 m/s
4 m/s
2 m/s
3.0
2.8
2.6
2.4
2.2
2.0
1.8
1.6
1.4
1.2
1.0
0.8
0.6
0.4
0.2
15
14
13
12
11
10
9
8
7
6
5
4
3
2
1
90%
80%
70%
60%
50%
40%
30%
20%
10%
42
40
38
36
34
32
30
28
26
24
22
20
18
16
14
12
90+ cm
80-90 cm
70-80 cm
60-70 cm
50-60 cm
40-50 cm
30-40 cm
20-30 cm
10-20 cm
1-10 cm
Sneeuwval
Natte sneeuw
Regen
>120 mm
115 mm
110 mm
105 mm
100 mm
95 mm
90 mm
85 mm
80 mm
75 mm
70 mm
65 mm
60 mm
55 mm
50 mm
45 mm
45 mm
40 mm
35 mm
30 mm
25 mm
20 mm
15 mm
10 mm
5 mm
0.1 mm
960 hPa
880 hPa
800 hPa
720 hPa
640 hPa
560 hPa
584 gpdm
568 gpdm
552 gpdm
536 gpdm
520 gpdm
504 gpdm
488 gpdm
Extreem zwaar Noodweer Kans op onweer
15% 15% 5% 50% 15%

Dag




Kaart






35°
30°
25°
20°
15°
10°
-5°
-10°
-15°
-20°
-25°